TimeEST,TemperatureF,Dew PointF,Humidity,Sea Level PressureIn,VisibilityMPH,Wind Direction,Wind SpeedMPH,Gust SpeedMPH,PrecipitationIn,Events,Conditions,WindDirDegrees,DateUTC
12:15 AM,28.4,28.4,100,30.51,10.0,Calm,Calm,-,N/A,,Clear,0,2013-01-19 05:15:00
12:35 AM,28.4,28.4,100,30.52,10.0,Calm,Calm,-,N/A,,Clear,0,2013-01-19 05:35:00
12:55 AM,28.4,28.4,100,30.51,10.0,Calm,Calm,-,N/A,,Clear,0,2013-01-19 05:55:00
1:15 AM,28.4,28.4,100,30.51,10.0,Calm,Calm,-,N/A,,Clear,0,2013-01-19 06:15:00
1:35 AM,28.4,28.4,100,30.52,10.0,Calm,Calm,-,N/A,,Clear,0,2013-01-19 06:35:00
1:55 AM,30.2,28.4,93,30.52,10.0,SSE,3.5,-,N/A,,Clear,160,2013-01-19 06:55:00
2:15 AM,30.2,28.4,93,30.51,10.0,Calm,Calm,-,N/A,,Clear,0,2013-01-19 07:15:00
2:35 AM,30.2,28.4,93,30.51,10.0,Calm,Calm,-,N/A,,Clear,0,2013-01-19 07:35:00
2:55 AM,28.4,26.6,93,30.51,10.0,Calm,Calm,-,N/A,,Clear,0,2013-01-19 07:55:00
3:15 AM,28.4,26.6,93,30.50,10.0,Calm,Calm,-,N/A,,Clear,0,2013-01-19 08:15:00
3:35 AM,30.2,28.4,93,30.50,10.0,South,3.5,-,N/A,,Clear,170,2013-01-19 08:35:00
3:55 AM,28.4,28.4,100,30.49,10.0,Calm,Calm,-,N/A,,Clear,0,2013-01-19 08:55:00
4:15 AM,30.2,28.4,93,30.49,10.0,Calm,Calm,-,N/A,,Clear,0,2013-01-19 09:15:00
4:35 AM,26.6,26.6,100,30.48,10.0,Calm,Calm,-,N/A,,Clear,0,2013-01-19 09:35:00
4:55 AM,28.4,26.6,93,30.48,10.0,Calm,Calm,-,N/A,,Clear,0,2013-01-19 09:55:00
5:15 AM,26.6,26.6,100,30.47,10.0,Calm,Calm,-,N/A,,Clear,0,2013-01-19 10:15:00
5:35 AM,26.6,26.6,100,30.47,10.0,Calm,Calm,-,N/A,,Clear,0,2013-01-19 10:35:00
5:55 AM,26.6,26.6,100,30.47,10.0,Calm,Calm,-,N/A,,Clear,0,2013-01-19 10:55:00
6:15 AM,26.6,26.6,100,30.47,10.0,Calm,Calm,-,N/A,,Clear,0,2013-01-19 11:15:00
6:35 AM,26.6,26.6,100,30.47,10.0,South,3.5,-,N/A,,Clear,170,2013-01-19 11:35:00
6:55 AM,26.6,26.6,100,30.47,10.0,Calm,Calm,-,N/A,,Clear,0,2013-01-19 11:55:00
7:55 AM,28.4,28.4,100,30.47,10.0,Calm,Calm,-,N/A,,Clear,0,2013-01-19 12:55:00
8:15 AM,32.0,30.2,93,30.47,10.0,SW,3.5,-,N/A,,Clear,220,2013-01-19 13:15:00
8:55 AM,35.6,30.2,81,30.48,10.0,WSW,4.6,-,N/A,,Clear,240,2013-01-19 13:55:00
9:35 AM,37.4,30.2,75,30.49,10.0,SSW,8.1,-,N/A,,Clear,210,2013-01-19 14:35:00
10:55 AM,44.6,30.2,57,30.45,10.0,SW,5.8,-,N/A,,Clear,230,2013-01-19 15:55:00
11:15 AM,44.6,30.2,57,30.44,10.0,SSW,10.4,-,N/A,,Clear,210,2013-01-19 16:15:00
11:35 AM,46.4,28.4,50,30.42,10.0,SW,9.2,-,N/A,,Clear,220,2013-01-19 16:35:00
12:15 PM,48.2,30.2,50,30.38,10.0,West,4.6,-,N/A,,Clear,260,2013-01-19 17:15:00
12:35 PM,48.2,28.4,46,30.36,10.0,WSW,9.2,-,N/A,,Clear,250,2013-01-19 17:35:00
12:55 PM,51.8,28.4,41,30.34,10.0,SW,4.6,-,N/A,,Clear,220,2013-01-19 17:55:00
1:15 PM,51.8,28.4,41,30.33,10.0,South,4.6,-,N/A,,Clear,190,2013-01-19 18:15:00
1:35 PM,51.8,28.4,41,30.31,10.0,South,5.8,-,N/A,,Clear,180,2013-01-19 18:35:00
1:55 PM,53.6,26.6,35,30.30,10.0,SSW,9.2,-,N/A,,Clear,200,2013-01-19 18:55:00
2:15 PM,53.6,28.4,38,30.29,10.0,SW,5.8,-,N/A,,Clear,220,2013-01-19 19:15:00
2:35 PM,53.6,28.4,38,30.28,10.0,South,5.8,-,N/A,,Clear,190,2013-01-19 19:35:00
2:55 PM,53.6,26.6,35,30.27,10.0,South,5.8,-,N/A,,Clear,190,2013-01-19 19:55:00
3:15 PM,53.6,26.6,35,30.26,10.0,South,8.1,-,N/A,,Clear,190,2013-01-19 20:15:00
3:35 PM,53.6,26.6,35,30.25,10.0,South,9.2,-,N/A,,Clear,190,2013-01-19 20:35:00
3:55 PM,53.6,24.8,33,30.25,10.0,SSW,8.1,-,N/A,,Clear,210,2013-01-19 20:55:00
4:15 PM,53.6,24.8,33,30.24,10.0,SW,8.1,-,N/A,,Clear,220,2013-01-19 21:15:00
4:35 PM,53.6,24.8,33,30.24,10.0,SW,6.9,-,N/A,,Clear,220,2013-01-19 21:35:00
4:55 PM,51.8,26.6,38,30.23,10.0,SW,5.8,-,N/A,,Clear,220,2013-01-19 21:55:00
5:15 PM,50.0,26.6,40,30.23,10.0,SSW,4.6,-,N/A,,Clear,210,2013-01-19 22:15:00
5:35 PM,48.2,26.6,43,30.22,10.0,South,4.6,-,N/A,,Clear,180,2013-01-19 22:35:00
5:55 PM,48.2,26.6,43,30.22,10.0,SW,3.5,-,N/A,,Clear,220,2013-01-19 22:55:00
6:15 PM,44.6,28.4,53,30.22,10.0,South,4.6,-,N/A,,Clear,180,2013-01-19 23:15:00
6:35 PM,42.8,28.4,57,30.22,10.0,South,3.5,-,N/A,,Clear,180,2013-01-19 23:35:00
6:55 PM,39.2,30.2,70,30.22,10.0,Calm,Calm,-,N/A,,Clear,0,2013-01-19 23:55:00
7:15 PM,37.4,32.0,81,30.22,10.0,SSE,3.5,-,N/A,,Clear,160,2013-01-20 00:15:00
7:35 PM,37.4,32.0,81,30.22,10.0,South,3.5,-,N/A,,Clear,190,2013-01-20 00:35:00
7:55 PM,39.2,30.2,70,30.22,10.0,South,4.6,-,N/A,,Clear,190,2013-01-20 00:55:00
8:15 PM,37.4,30.2,75,30.22,10.0,South,4.6,-,N/A,,Clear,190,2013-01-20 01:15:00
8:35 PM,39.2,32.0,75,30.21,10.0,South,3.5,-,N/A,,Clear,180,2013-01-20 01:35:00
8:55 PM,39.2,32.0,75,30.21,10.0,South,4.6,-,N/A,,Clear,180,2013-01-20 01:55:00
9:15 PM,39.2,32.0,75,30.20,10.0,South,4.6,-,N/A,,Clear,180,2013-01-20 02:15:00
9:35 PM,37.4,32.0,81,30.19,10.0,South,5.8,-,N/A,,Clear,180,2013-01-20 02:35:00
9:55 PM,39.2,30.2,70,30.19,10.0,SSW,4.6,-,N/A,,Clear,200,2013-01-20 02:55:00
10:15 PM,37.4,32.0,81,30.18,10.0,South,5.8,-,N/A,,Clear,190,2013-01-20 03:15:00
10:35 PM,37.4,32.0,81,30.17,10.0,SSW,4.6,-,N/A,,Clear,200,2013-01-20 03:35:00
10:55 PM,41.0,30.2,65,30.17,10.0,SSW,3.5,-,N/A,,Clear,210,2013-01-20 03:55:00
11:15 PM,37.4,32.0,81,30.15,10.0,South,4.6,-,N/A,,Clear,180,2013-01-20 04:15:00
11:35 PM,37.4,32.0,81,30.14,10.0,South,4.6,-,N/A,,Clear,180,2013-01-20 04:35:00
11:55 PM,37.4,32.0,81,30.14,10.0,Calm,Calm,-,N/A,,Clear,0,2013-01-20 04:55:00